Year,Month,Day,Hour,Minute,Value (Times are PST for temperature in C)
2012,08,15,11,11,26.20
2012,08,15,11,12,26.20
2012,08,15,11,13,26.20
2012,08,15,11,14,26.20
2012,08,15,11,15,26.30
2012,08,15,11,16,26.30
2012,08,15,11,17,26.40
2012,08,15,11,18,26.40
2012,08,15,11,19,26.50
2012,08,15,11,20,26.50
2012,08,15,11,21,26.50
2012,08,15,11,22,26.50
2012,08,15,11,23,26.50
2012,08,15,11,24,26.40
2012,08,15,11,25,26.40
2012,08,15,11,26,26.40
2012,08,15,11,27,26.40
2012,08,15,11,28,26.40
2012,08,15,11,29,26.40
2012,08,15,11,30,26.40
2012,08,15,11,31,26.40
2012,08,15,11,32,26.30
2012,08,15,11,33,26.40
2012,08,15,11,34,26.40
2012,08,15,11,35,26.40
2012,08,15,11,36,26.40
2012,08,15,11,37,26.50
2012,08,15,11,38,26.70
2012,08,15,11,39,26.80
2012,08,15,11,40,26.90
2012,08,15,11,41,27.00
2012,08,15,11,42,27.10
2012,08,15,11,43,27.00
2012,08,15,11,44,27.00
2012,08,15,11,45,27.00
2012,08,15,11,46,26.90
2012,08,15,11,47,27.00
2012,08,15,11,48,27.00
2012,08,15,11,49,27.10
2012,08,15,11,50,27.10
2012,08,15,11,51,27.10
2012,08,15,11,52,27.20
2012,08,15,11,53,27.20
2012,08,15,11,54,27.20
2012,08,15,11,55,27.20
2012,08,15,11,56,27.10
2012,08,15,11,57,27.00
2012,08,15,11,58,26.90
2012,08,15,11,59,26.80
2012,08,15,12,00,26.80
2012,08,15,12,01,26.70
2012,08,15,12,02,26.70
2012,08,15,12,03,26.80
2012,08,15,12,04,26.90
2012,08,15,12,05,26.90
2012,08,15,12,06,26.90
2012,08,15,12,07,27.00
2012,08,15,12,08,27.10
2012,08,15,12,09,27.10
2012,08,15,12,10,27.20
2012,08,15,12,11,27.20
2012,08,15,12,12,27.20
2012,08,15,12,13,27.20
2012,08,15,12,14,27.30
2012,08,15,12,15,27.30
2012,08,15,12,16,27.30
2012,08,15,12,17,27.40
2012,08,15,12,18,27.40
2012,08,15,12,19,27.40
2012,08,15,12,20,27.40
2012,08,15,12,21,27.40
2012,08,15,12,22,27.30
2012,08,15,12,23,27.30
2012,08,15,12,24,27.30
2012,08,15,12,25,27.30
2012,08,15,12,26,27.30
2012,08,15,12,27,27.30
2012,08,15,12,28,27.30
2012,08,15,12,29,27.40
2012,08,15,12,30,27.40
2012,08,15,12,31,27.40
2012,08,15,12,32,27.50
2012,08,15,12,33,27.60
2012,08,15,12,34,27.60
2012,08,15,12,35,27.60
2012,08,15,12,36,27.60
2012,08,15,12,37,27.60
2012,08,15,12,38,27.60
2012,08,15,12,39,27.60
2012,08,15,12,40,27.80
2012,08,15,12,41,27.80
2012,08,15,12,42,27.80
2012,08,15,12,43,27.80
2012,08,15,12,44,27.80
2012,08,15,12,45,27.80
2012,08,15,12,46,27.80
2012,08,15,12,47,27.80
2012,08,15,12,48,27.80
2012,08,15,12,49,27.70
2012,08,15,12,50,27.70
2012,08,15,12,51,27.60
2012,08,15,12,52,27.60
2012,08,15,12,53,27.50
2012,08,15,12,54,27.50
2012,08,15,12,55,27.50
2012,08,15,12,56,27.60
2012,08,15,12,57,27.60
2012,08,15,12,58,27.70
2012,08,15,12,59,27.60
2012,08,15,13,00,27.60
2012,08,15,13,01,27.70
2012,08,15,13,02,27.70
2012,08,15,13,03,27.80
2012,08,15,13,04,27.80
2012,08,15,13,05,27.80
2012,08,15,13,06,27.80
2012,08,15,13,07,27.80
2012,08,15,13,08,27.90
2012,08,15,13,09,27.90
2012,08,15,13,10,28.00
2012,08,15,13,11,28.10
2012,08,15,13,12,28.10
2012,08,15,13,13,28.20
2012,08,15,13,14,28.20
2012,08,15,13,15,28.30
2012,08,15,13,16,28.30
2012,08,15,13,17,28.40
2012,08,15,13,18,28.40
2012,08,15,13,19,28.40
2012,08,15,13,20,28.40
2012,08,15,13,21,28.40
2012,08,15,13,22,28.40
2012,08,15,13,23,28.40
2012,08,15,13,24,28.40
2012,08,15,13,25,28.40
2012,08,15,13,26,28.50
2012,08,15,13,27,28.40
2012,08,15,13,28,28.40
2012,08,15,13,29,28.40
2012,08,15,13,30,28.50
2012,08,15,13,31,28.50
2012,08,15,13,32,28.50
2012,08,15,13,33,28.50
2012,08,15,13,34,28.50
2012,08,15,13,35,28.40
2012,08,15,13,36,28.40
2012,08,15,13,37,28.40
2012,08,15,13,38,28.40
2012,08,15,13,39,28.40
2012,08,15,13,40,28.40
2012,08,15,13,41,28.40
2012,08,15,13,42,28.50
2012,08,15,13,43,28.50
2012,08,15,13,44,28.50
2012,08,15,13,45,28.50
2012,08,15,13,46,28.50
2012,08,15,13,47,28.60
2012,08,15,13,48,28.60
2012,08,15,13,49,28.60
2012,08,15,13,50,28.70
2012,08,15,13,51,28.70
2012,08,15,13,52,28.70
2012,08,15,13,53,28.70
2012,08,15,13,54,28.70
2012,08,15,13,55,28.70
2012,08,15,13,56,28.70
2012,08,15,13,57,28.80
2012,08,15,13,58,28.70
2012,08,15,13,59,28.70
2012,08,15,14,00,28.70
2012,08,15,14,01,28.70
2012,08,15,14,02,28.70
2012,08,15,14,03,28.70
2012,08,15,14,04,28.70
2012,08,15,14,05,28.80
2012,08,15,14,06,28.80
2012,08,15,14,07,28.80
2012,08,15,14,08,28.90
2012,08,15,14,09,29.00
2012,08,15,14,10,29.10
2012,08,15,14,11,29.20
2012,08,15,14,12,29.20
2012,08,15,14,13,29.30
2012,08,15,14,14,29.30
2012,08,15,14,15,29.40
2012,08,15,14,16,29.40
2012,08,15,14,17,29.50
2012,08,15,14,18,29.60
2012,08,15,14,19,29.60
2012,08,15,14,20,29.60
2012,08,15,14,21,29.60
2012,08,15,14,22,29.60
2012,08,15,14,23,29.60
2012,08,15,14,24,29.60
2012,08,15,14,25,29.60
2012,08,15,14,26,29.70
2012,08,15,14,27,29.70
2012,08,15,14,28,29.80
2012,08,15,14,29,29.90
2012,08,15,14,30,29.90
2012,08,15,14,31,29.90
2012,08,15,14,32,29.90
2012,08,15,14,33,29.90
2012,08,15,14,34,29.80
2012,08,15,14,35,29.80
2012,08,15,14,36,29.80
2012,08,15,14,37,29.80
2012,08,15,14,38,29.80
2012,08,15,14,39,29.80
2012,08,15,14,40,29.80
2012,08,15,14,41,29.80
2012,08,15,14,42,29.80
2012,08,15,14,43,29.90
2012,08,15,14,44,29.90
2012,08,15,14,45,29.90
2012,08,15,14,46,29.90
2012,08,15,14,47,29.90
2012,08,15,14,48,29.90
2012,08,15,14,49,29.90
2012,08,15,14,50,29.90
2012,08,15,14,51,29.90
2012,08,15,14,52,29.90
2012,08,15,14,53,29.90
2012,08,15,14,54,29.90
2012,08,15,14,55,29.80
2012,08,15,14,56,29.80
2012,08,15,14,57,29.80
2012,08,15,14,58,29.80
2012,08,15,14,59,29.70
2012,08,15,15,00,29.70
2012,08,15,15,01,29.70
2012,08,15,15,02,29.70
2012,08,15,15,03,29.80
2012,08,15,15,04,29.90
2012,08,15,15,05,29.90
2012,08,15,15,06,29.90
2012,08,15,15,07,29.90
2012,08,15,15,08,29.90
2012,08,15,15,09,29.90
2012,08,15,15,10,29.80
2012,08,15,15,11,29.80
2012,08,15,15,12,29.80
2012,08,15,15,13,29.80
2012,08,15,15,14,29.80
2012,08,15,15,15,29.80
2012,08,15,15,16,29.80
2012,08,15,15,17,29.80
2012,08,15,15,18,29.80
2012,08,15,15,19,29.80
2012,08,15,15,20,29.80
2012,08,15,15,21,29.80
2012,08,15,15,22,29.90
2012,08,15,15,23,30.00
2012,08,15,15,24,30.10
2012,08,15,15,25,30.20
2012,08,15,15,26,30.20
2012,08,15,15,27,30.20
2012,08,15,15,28,30.20
2012,08,15,15,29,30.20
2012,08,15,15,30,30.20
2012,08,15,15,31,30.20
2012,08,15,15,32,30.20
2012,08,15,15,33,30.10
2012,08,15,15,34,30.00
2012,08,15,15,35,30.00
2012,08,15,15,36,29.90
2012,08,15,15,37,29.90
2012,08,15,15,38,29.80
2012,08,15,15,39,29.70
2012,08,15,15,40,29.60
2012,08,15,15,41,29.60
2012,08,15,15,42,29.60
2012,08,15,15,43,29.60
2012,08,15,15,44,29.60
2012,08,15,15,45,29.70
2012,08,15,15,46,29.70
2012,08,15,15,47,29.80
2012,08,15,15,48,29.90
2012,08,15,15,49,29.90
2012,08,15,15,50,30.00
2012,08,15,15,51,30.00
2012,08,15,15,52,30.10
2012,08,15,15,53,30.20
2012,08,15,15,54,30.30
2012,08,15,15,55,30.40
2012,08,15,15,56,30.50
2012,08,15,15,57,30.50
2012,08,15,15,58,30.50
2012,08,15,15,59,30.50
2012,08,15,16,00,30.50
2012,08,15,16,01,30.50
2012,08,15,16,02,30.60
2012,08,15,16,03,30.60
2012,08,15,16,04,30.60
2012,08,15,16,05,30.60
2012,08,15,16,06,30.60
2012,08,15,16,07,30.60
2012,08,15,16,08,30.70
2012,08,15,16,09,30.80
2012,08,15,16,10,30.80
2012,08,15,16,11,30.90
2012,08,15,16,12,31.00
2012,08,15,16,13,31.00
2012,08,15,16,14,31.00
2012,08,15,16,15,31.00
2012,08,15,16,16,31.00
2012,08,15,16,17,30.90
2012,08,15,16,18,30.90
2012,08,15,16,19,30.90
2012,08,15,16,20,30.90
2012,08,15,16,21,30.90
2012,08,15,16,22,30.90
2012,08,15,16,23,30.90
2012,08,15,16,24,30.90
2012,08,15,16,25,30.90
2012,08,15,16,26,30.90
2012,08,15,16,27,30.90
2012,08,15,16,28,30.80
2012,08,15,16,29,30.80
2012,08,15,16,30,30.70
2012,08,15,16,31,30.70
2012,08,15,16,32,30.70
2012,08,15,16,33,30.60
2012,08,15,16,34,30.60
2012,08,15,16,35,30.40
2012,08,15,16,36,30.40
2012,08,15,16,37,30.40
2012,08,15,16,38,30.40
2012,08,15,16,39,30.50
2012,08,15,16,40,30.50
2012,08,15,16,41,30.50
2012,08,15,16,42,30.50
2012,08,15,16,43,30.50
2012,08,15,16,44,30.50
2012,08,15,16,45,30.60
2012,08,15,16,46,30.60
2012,08,15,16,47,30.70
2012,08,15,16,48,30.70
2012,08,15,16,49,30.70
2012,08,15,16,50,30.70
2012,08,15,16,51,30.70
2012,08,15,16,52,30.70
2012,08,15,16,53,30.70
2012,08,15,16,54,30.70
2012,08,15,16,55,30.70
2012,08,15,16,56,30.70
2012,08,15,16,57,30.70
2012,08,15,16,58,30.70
2012,08,15,16,59,30.70
2012,08,15,17,00,30.70
2012,08,15,17,01,30.60
2012,08,15,17,02,30.60
2012,08,15,17,03,30.50
2012,08,15,17,04,30.40
2012,08,15,17,05,30.40
2012,08,15,17,06,30.40
2012,08,15,17,07,30.40
2012,08,15,17,08,30.40
2012,08,15,17,09,30.40
2012,08,15,17,10,30.40
2012,08,15,17,11,30.40
2012,08,15,17,12,30.50
2012,08,15,17,13,30.50
2012,08,15,17,14,30.60
2012,08,15,17,15,30.60
2012,08,15,17,16,30.60
2012,08,15,17,17,30.60
2012,08,15,17,18,30.50
2012,08,15,17,19,30.40
2012,08,15,17,20,30.40
2012,08,15,17,21,30.40
2012,08,15,17,22,30.50
2012,08,15,17,23,30.50
2012,08,15,17,24,30.60
2012,08,15,17,25,30.60
2012,08,15,17,26,30.60
2012,08,15,17,27,30.70
2012,08,15,17,28,30.70
2012,08,15,17,29,30.80
2012,08,15,17,30,30.80
2012,08,15,17,31,30.80
2012,08,15,17,32,30.80
2012,08,15,17,33,30.80
2012,08,15,17,34,30.80
2012,08,15,17,35,30.80
2012,08,15,17,36,30.70
2012,08,15,17,37,30.60
2012,08,15,17,38,30.60
2012,08,15,17,39,30.50
2012,08,15,17,40,30.40
2012,08,15,17,41,30.40
2012,08,15,17,42,30.30
2012,08,15,17,43,30.30
2012,08,15,17,44,30.30
2012,08,15,17,45,30.30
2012,08,15,17,46,30.30
2012,08,15,17,47,30.30
2012,08,15,17,48,30.30
2012,08,15,17,49,30.30
2012,08,15,17,50,30.30
2012,08,15,17,51,30.30
2012,08,15,17,52,30.30
2012,08,15,17,53,30.20
2012,08,15,17,54,30.20
2012,08,15,17,55,30.20
2012,08,15,17,56,30.20
2012,08,15,17,57,30.30
2012,08,15,17,58,30.30
2012,08,15,17,59,30.20
2012,08,15,18,00,30.20
2012,08,15,18,01,30.10
2012,08,15,18,02,30.10
2012,08,15,18,03,30.00
2012,08,15,18,04,30.00
2012,08,15,18,05,30.00
2012,08,15,18,06,29.90
2012,08,15,18,07,29.80
2012,08,15,18,08,29.80
2012,08,15,18,09,29.80
2012,08,15,18,10,29.80
2012,08,15,18,11,29.80
2012,08,15,18,12,29.80
2012,08,15,18,13,29.80
2012,08,15,18,14,29.80
2012,08,15,18,15,29.80
2012,08,15,18,16,29.90
2012,08,15,18,17,29.90
2012,08,15,18,18,29.90
2012,08,15,18,19,29.90
2012,08,15,18,20,29.90
2012,08,15,18,21,29.90
2012,08,15,18,22,29.90
2012,08,15,18,23,29.80
2012,08,15,18,24,29.80
2012,08,15,18,25,29.80
2012,08,15,18,26,29.80
2012,08,15,18,27,29.80
2012,08,15,18,28,29.80
2012,08,15,18,29,29.80
2012,08,15,18,30,29.80
2012,08,15,18,31,29.80
2012,08,15,18,32,29.80
2012,08,15,18,33,29.80
2012,08,15,18,34,29.80
2012,08,15,18,35,29.80
2012,08,15,18,36,29.80
2012,08,15,18,37,29.80
2012,08,15,18,38,29.80
2012,08,15,18,39,29.80
2012,08,15,18,40,29.90
2012,08,15,18,41,29.90
2012,08,15,18,42,29.90
2012,08,15,18,43,29.90
2012,08,15,18,44,29.90
2012,08,15,18,45,29.90
2012,08,15,18,46,29.90
2012,08,15,18,47,29.90
2012,08,15,18,48,29.90
2012,08,15,18,49,29.80
2012,08,15,18,50,29.80
2012,08,15,18,51,29.80
2012,08,15,18,52,29.80
2012,08,15,18,53,29.80
2012,08,15,18,54,29.70
2012,08,15,18,55,29.70
2012,08,15,18,56,29.70
2012,08,15,18,57,29.70
2012,08,15,18,58,29.60
2012,08,15,18,59,29.60
2012,08,15,19,00,29.60
2012,08,15,19,01,29.60
2012,08,15,19,02,29.60
2012,08,15,19,03,29.60
2012,08,15,19,04,29.60
2012,08,15,19,05,29.60
2012,08,15,19,06,29.60
2012,08,15,19,07,29.60
2012,08,15,19,08,29.60
2012,08,15,19,09,29.60
2012,08,15,19,10,29.50
2012,08,15,19,11,29.50
2012,08,15,19,12,29.50
2012,08,15,19,13,29.40
2012,08,15,19,14,29.40
2012,08,15,19,15,29.40
2012,08,15,19,16,29.40
2012,08,15,19,17,29.40
2012,08,15,19,18,29.30
2012,08,15,19,19,29.30
2012,08,15,19,20,29.30
2012,08,15,19,21,29.30
2012,08,15,19,22,29.20
2012,08,15,19,23,29.20
2012,08,15,19,24,29.20
2012,08,15,19,25,29.20
2012,08,15,19,26,29.20
2012,08,15,19,27,29.10
2012,08,15,19,28,29.10
2012,08,15,19,29,29.10
2012,08,15,19,30,29.00
2012,08,15,19,31,29.00
2012,08,15,19,32,28.90
2012,08,15,19,33,28.90
2012,08,15,19,34,28.80
2012,08,15,19,35,28.80
2012,08,15,19,36,28.80
2012,08,15,19,37,28.70
2012,08,15,19,38,28.60
2012,08,15,19,39,28.60
2012,08,15,19,40,28.50
2012,08,15,19,41,28.50
2012,08,15,19,42,28.40
2012,08,15,19,43,28.40
2012,08,15,19,44,28.40
2012,08,15,19,45,28.30
2012,08,15,19,46,28.30
2012,08,15,19,47,28.30
2012,08,15,19,48,28.20
2012,08,15,19,49,28.20
2012,08,15,19,50,28.20
2012,08,15,19,51,28.10
2012,08,15,19,52,28.10
2012,08,15,19,53,28.00
2012,08,15,19,54,28.00
2012,08,15,19,55,27.90
2012,08,15,19,56,27.80
2012,08,15,19,57,27.80
2012,08,15,19,58,27.70
2012,08,15,19,59,27.70
2012,08,15,20,00,27.60
2012,08,15,20,01,27.60
2012,08,15,20,02,27.50
2012,08,15,20,03,27.40
2012,08,15,20,04,27.30
2012,08,15,20,05,27.20
2012,08,15,20,06,27.20
2012,08,15,20,07,27.10
2012,08,15,20,08,27.00
2012,08,15,20,09,27.00
2012,08,15,20,10,26.90
2012,08,15,20,11,26.80
2012,08,15,20,12,26.80
2012,08,15,20,13,26.70
2012,08,15,20,14,26.60
2012,08,15,20,15,26.60
2012,08,15,20,16,26.50
2012,08,15,20,17,26.50
2012,08,15,20,18,26.50
2012,08,15,20,19,26.50
2012,08,15,20,20,26.50
2012,08,15,20,21,26.50
2012,08,15,20,22,26.50
2012,08,15,20,23,26.50
2012,08,15,20,24,26.50
2012,08,15,20,25,26.50
